This is the latest recevied weather packets stored in our database for station/object KD8DNS. If no packets are shown the sender has not sent any weather packets the latest 10 day(s).
| Time | Temp. | Humidity | Pressure | Rain* | Wind** | Luminosity | Snow |
|---|---|---|---|---|---|---|---|
| 1788029169 | 30.56° C | 50% | 1024.2 hPa | 0 mm | - | 186 W/m² | - |
| 1788028863 | 30.56° C | 48% | 1024.2 hPa | 0 mm | - | 168 W/m² | - |
| 1788028566 | 31.11° C | 46% | 1024.1 hPa | 0 mm | - | 694 W/m² | - |
| 1788028253 | 30.56° C | 48% | 1024.1 hPa | 0 mm | - | 568 W/m² | - |
| 1788027949 | 30.56° C | 47% | 1024.2 hPa | 0 mm | - | 714 W/m² | - |
| 1788027643 | 30.56° C | 50% | 1024.2 hPa | 0 mm | - | 712 W/m² | - |
| 1788027337 | 31.11° C | 53% | 1024.6 hPa | 0 mm | - | 734 W/m² | - |
| 1788027031 | 30° C | 50% | 1024.5 hPa | 0 mm | - | 738 W/m² | - |
| 1788026726 | 31.11° C | 48% | 1024.5 hPa | 0 mm | - | 692 W/m² | - |
| 1788026423 | 30° C | 51% | 1024.4 hPa | 0 mm | - | 698 W/m² | - |
| 1788026117 | 28.89° C | 55% | 1024.8 hPa | 0 mm | - | 687 W/m² | - |
| 1788025815 | 28.33° C | 54% | 1024.9 hPa | 0 mm | - | 642 W/m² | - |
| 1788025515 | 28.33° C | 56% | 1025 hPa | 0 mm | - | 131 W/m² | - |
| 1788025210 | 27.78° C | 56% | 1024.8 hPa | 0 mm | - | 197 W/m² | - |
| 1788024905 | 28.33° C | 57% | 1025.1 hPa | 0 mm | - | 113 W/m² | - |
| 1788024600 | 28.33° C | 58% | 1025.2 hPa | 0 mm | - | 122 W/m² | - |
| 1788024295 | 28.89° C | 58% | 1025.1 hPa | 0 mm | - | 678 W/m² | - |
| 1788023990 | 30° C | 52% | 1025.2 hPa | 0 mm | - | 140 W/m² | - |
| 1788023685 | 29.44° C | 54% | 1025.3 hPa | 0 mm | - | 637 W/m² | - |
| 1788023376 | 30° C | 54% | 1025.3 hPa | 0 mm | - | 667 W/m² | - |
| 1788023075 | 30° C | 53% | 1025.3 hPa | 0 mm | - | 672 W/m² | - |
| 1788022773 | 28.89° C | 56% | 1025.6 hPa | 0 mm | - | 694 W/m² | - |
| 1788022472 | 28.33° C | 55% | 1025.4 hPa | 0 mm | - | 253 W/m² | - |
| 1788022167 | 28.89° C | 54% | 1025.5 hPa | 0 mm | - | 155 W/m² | - |
| 1788021866 | 28.89° C | 55% | 1025.4 hPa | 0 mm | - | 649 W/m² | - |
* Rain latest hour (hover to see other rain measurements)
** Current wind speed in m/s (hover to see current wind gust speed)